• Processing (Info)

  • MPEC 2014-L60 : 2014 LL26

    The following Minor Planet Electronic Circular may be linked-to from your own Web pages, but must not otherwise be redistributed electronically.

    A form allowing access to any MPEC is at the bottom of this page.


    Read MPEC 2014-L59 Read MPEC 2014-L61


    M.P.E.C. 2014-L60                                Issued 2014 June 15, 14:08 UT
    
         The Minor Planet Electronic Circulars contain information on unusual
             minor planets and routine data on comets.  They are published
       on behalf of Commission 20 of the International Astronomical Union by the
              Minor Planet Center, Smithsonian Astrophysical Observatory,
                              Cambridge, MA 02138, U.S.A.
    
                 Prepared using the Tamkin Foundation Computer Network
    
                                  MPC@CFA.HARVARD.EDU
                URL http://www.minorplanetcenter.net/    ISSN 1523-6714
    
                                       2014 LL26
    
    Observations:
         K14L26L* C2014 06 09.33678 16 30 13.68 -24 48 40.3          17.2 rNEL060I41
         K14L26L  C2014 06 09.35812 16 30 30.88 -24 34 15.1          17.0 rNEL060I41
         K14L26L  C2014 06 14.34676 17 40 20.74 +26 03 45.1          18.3 VqEL060G96
         K14L26L  C2014 06 14.35232 17 40 23.25 +26 05 56.6          18.3 VqEL060G96
         K14L26L  C2014 06 14.35789 17 40 25.95 +26 08 11.8          18.2 VqEL060G96
         K14L26L  C2014 06 14.36347 17 40 28.52 +26 10 23.9          18.1 VqEL060G96
         K14L26L  C2014 06 14.36791 17 40 30.62 +26 12 09.3          18.2 VqEL060G96
         K14L26L  C2014 06 14.36818 17 40 30.74 +26 12 16.3          18.5 VqEL060G96
         K14L26L  C2014 06 14.36844 17 40 30.86 +26 12 22.5          18.3 VqEL060G96
         K14L26L  C2014 06 14.36871 17 40 30.98 +26 12 28.8          18.4 VqEL060G96
         K14L26L  C2014 06 14.41515 17 40 53.32 +26 30 37.3          18.4 VqEL060G96
         K14L26L  C2014 06 14.41614 17 40 53.81 +26 31 00.2          18.4 VqEL060G96
         K14L26L  C2014 06 14.41711 17 40 54.29 +26 31 22.6          18.3 VqEL060G96
         K14L26L  C2014 06 14.41806 17 40 54.76 +26 31 44.8          18.4 VqEL060G96
         K14L26L  C2014 06 14.44049 17 41 06.05 +26 40 20.5          19.1 VqEL060G96
         K14L26L  C2014 06 14.44385 17 41 07.76 +26 41 37.4          18.3 VqEL060G96
         K14L26L  C2014 06 14.44726 17 41 09.54 +26 42 55.5          18.3 VqEL060G96
         K14L26L  C2014 06 14.45061 17 41 11.30 +26 44 11.7          18.0 VqEL060G96
         K14L26L KC2014 06 14.91208 17 46 38.73 +29 34 59.6          18.2 RqEL060J95
         K14L26L KC2014 06 14.91666 17 46 41.07 +29 36 39.4          18.9 RqEL060J95
         K14L26L KC2014 06 14.92371 17 46 44.56 +29 39 14.1          19.2 RqEL060J95
         K14L26L KC2014 06 15.22569517 49 41.00 +31 24 27.3          19.3 VqEL060H21
         K14L26L KC2014 06 15.22920417 49 42.48 +31 25 37.6          18.5 VqEL060H21
         K14L26L KC2014 06 15.23280017 49 44.08 +31 26 48.9          18.0 VqEL060H21
         K14L26L  C2014 06 15.24939 17 50 02.59 +31 32 54.7          18.6 VqEL060G96
         K14L26L  C2014 06 15.24966 17 50 02.68 +31 33 00.2          18.6 VqEL060G96
         K14L26L  C2014 06 15.24993 17 50 02.81 +31 33 05.6          18.8 VqEL060G96
         K14L26L  C2014 06 15.25019 17 50 02.92 +31 33 10.9          18.6 VqEL060G96
    
    Observer details:
    G96 Mt. Lemmon Survey.  Observers A. D. Grauer, C. M. Kaufmann.  Measurers
        E. J. Christensen, A. R. Gibbs, A. D. Grauer, R. E. Hill, J. A. Johnson,
        R. A. Kowalski, S. M. Larson, R. J. Sanders, F. C. Shelly.  1.5-m
        reflector + CCD.
    H21 Astronomical Research Observatory, Westfield.  Observer R. Holmes.
        Measurers T. Vorobjov, L. Buzzi, S. Foglia, T. Linder.  0.81-m f/4.0
        astrograph + CCD.
    I41 Palomar Mountain--PTF.  Observer Palomar Transient Factory.  Measurer
        A. Waszczak.  1.2-m f/2.44 Schmidt + CCD.
    J95 Great Shefford.  Observer P. Birtwhistle.  0.40-m f/6.0 Schmidt-Cassegrain
        + CCD.
    
    Orbital elements:
    2014 LL26                                                Earth MOID = 0.0135 AU
    Epoch 2014 May 23.0 TT = JDT 2456800.5                  MPC
    M 336.06940              (2000.0)            P               Q
    n   0.80740298     Peri.   11.95502     +0.00298434     +0.98761847
    a   1.1422009      Node   258.36599     -0.93016784     -0.05484082
    e   0.1010026      Incl.    9.21482     -0.36712244     +0.14697700
    P   1.22           H   25.2           G   0.15           U   6
    Residuals in seconds of arc
    140609 I41  1.1+  0.0     140614 G96  0.1+  0.1+    140614 J95  0.1-  0.7+
    140609 I41  1.1-  0.0     140614 G96  0.1+  0.1+    140615 H21  0.0   0.2+
    140614 G96  0.3-  0.1-    140614 G96  0.1+  0.0     140615 H21  0.4-  0.2+
    140614 G96 (1.2-  1.8-)   140614 G96  0.1+  0.2+    140615 H21  0.2+  0.4-
    140614 G96  0.2+  0.3+    140614 G96  0.1+  0.1-    140615 G96  0.2-  0.1+
    140614 G96  0.3-  0.4-    140614 G96  0.1-  0.0     140615 G96  0.6-  0.1+
    140614 G96  0.1-  0.5-    140614 G96  0.2+  0.2+    140615 G96  0.4-  0.0
    140614 G96  0.2-  0.1+    140614 G96  0.5+  0.0     140615 G96  0.4-  0.1+
    140614 G96  0.2-  0.1+    140614 J95  0.0   0.3-
    140614 G96  0.3-  0.0     140614 J95  0.4+  0.5-
    
    Ephemeris:
    2014 LL26                a,e,i = 1.14, 0.10, 9                   q = 1.0268
    Date    TT    R. A. (2000) Decl.     Delta      r     Elong.  Phase     V
    2014 05 16    11 03 20.3 -72 20 54   0.07543 1.0451   115.1    61.2    21.9
    ...
    2014 05 31    13 19 56.9 -69 09 48   0.03365 1.0334   124.8    53.7    19.9
    ...
    2014 06 08    16 05 55.8 -38 13 06   0.01538 1.0294   160.3    19.4    17.2
    ...
    2014 06 14    17 36 36.0 +23 39 17   0.01729 1.0275   133.1    46.2    18.2
    2014 06 15    17 47 19.0 +30 08 52   0.01924 1.0272   126.4    52.7    18.6
    2014 06 16    17 57 00.8 +35 19 30   0.02141 1.0270   121.1    57.8    19.0
    ...
    2014 06 22    18 38 53.6 +51 08 32   0.03661 1.0263   105.0    73.1    20.6
    ...
    2014 06 30    19 09 14.2 +57 49 30   0.05826 1.0270    98.7    78.1    21.8
    ...
    2014 07 15    19 36 45.0 +61 10 22   0.09709 1.0331    97.2    77.4    22.9
    
    A. U. Tomatic                (C) Copyright 2014 MPC           M.P.E.C. 2014-L60
    

    Read MPEC 2014-L59 Read MPEC 2014-L61


    MPEC number:

    Enter an MPEC number in one of the following forms:

    • 1997-B01 (the full form)
    • J97B01 (the packed version of the full form)
    • B01 (the abbreviated form)